Location: Campestrin
(46.4667°N, 11.7167°E)
Time: 17:03:33
(UTC+00:00)

Cosmos 2074 Rocket - Pass Details

Date: 18 April 2021
Orbit: 968 x 986 km, 82.9° (Epoch: 06 May)

Event Time Altitude Azimuth Distance (km) Brightness Sun altitude
Rises 23:35:26 0° 349° (N) 3,686 8.0 -32.1°
Reaches altitude 10° 23:37:58 10° 348° (NNW) 2,737 7.1 -32.1°
Enters shadow 23:43:22 64° 316° (NW) 1,079 4.2 -31.9°
